Starlink 11448

operational
NORAD ID: 63005 Int'l Des: 2025-032 Owner: SPXS Country: US Constellation: starlink
LEOCIRCULAR

关于 Starlink 11448

正在加载描述...

实时位置

正在加载3D地球...

即将过境

高度历史

Altitude vs Time

uPlot chart will show altitude changes over time

两行轨道根数

1 63005U 25032A 25260.14453732 .00166435 00000-0 12745-2 0 9996
2 63005 42.9998 161.0589 0001345 280.3376 79.7340 15.70845111 34931
Epoch: Sep 17, 2025 • Age: 11 hours

当前状态

高度 358.5 km
速度 7.70 km/s
星下点 35.84°N, 71.14°E
发射日期 Feb 15, 2025
运行时间 0.5 years
类型 internet

技术详情

分类 Payload
质量 960.00 kg
干质量 910.00 kg
总质量 960.00 kg
长度 0.30 m
直径 4.10 m
跨度 29.00 m
形状 Box + pan
制造商 SPXS
平台类型 Starlink V2MD
阶段状态 In Orbit
所有者/国家 SPXS/US

大型星座

Loading constellations...